| time (UTC) | temp C | wind direction | speed KPH | gust KPH | rain 1hr cm | rain 24hr cm | rain mn cm | humidity % | barometer mb |
| 20260509064406 | 11 | 190 | 1.6 | 3.2 | 0.00 | 0.00 | 0.00 | 70 | 1003.6 |
| 20260509063903 | 11 | 98 | 0.0 | 1.6 | 0.00 | 0.00 | 0.00 | 70 | 1003.6 |
| 20260509063359 | 11 | 112 | 1.6 | 1.6 | 0.00 | 0.00 | 0.00 | 69 | 1003.8 |
| 20260509062856 | 11 | 133 | 1.6 | 1.6 | 0.00 | 0.00 | 0.00 | 68 | 1003.9 |
| 20260509062353 | 11 | 125 | 0.0 | 0.0 | 0.00 | 0.00 | 0.00 | 66 | 1003.7 |
| 20260509061851 | 11 | 145 | 1.6 | 1.6 | 0.00 | 0.00 | 0.00 | 63 | 1003.9 |
| 20260509061349 | 11 | 151 | 3.2 | 4.8 | 0.00 | 0.00 | 0.00 | 60 | 1003.5 |
| 20260509060845 | 11 | 137 | 0.0 | 0.0 | 0.00 | 0.00 | 0.00 | 54 | 1003.8 |
| 20260509060342 | 11 | 145 | 1.6 | 1.6 | 0.00 | 0.00 | 0.00 | 50 | 1003.7 |
| 20260509055837 | 10 | 145 | 0.0 | 0.0 | 0.00 | 0.00 | 0.00 | 46 | 1004.0 |
| 20260509055333 | 10 | 126 | 0.0 | 0.0 | 0.00 | 0.00 | 0.00 | 44 | 1004.0 |
| 20260509054831 | 10 | 135 | 0.0 | 0.0 | 0.00 | 0.00 | 0.00 | 43 | 1003.9 |
| 20260509054327 | 10 | 187 | 0.0 | 1.6 | 0.00 | 0.00 | 0.00 | 42 | 1004.2 |
| 20260509053826 | 10 | 130 | 0.0 | 0.0 | 0.00 | 0.00 | 0.00 | 41 | 1003.9 |
| 20260509053322 | 10 | 135 | 1.6 | 1.6 | 0.00 | 0.00 | 0.00 | 41 | 1003.9 |
| 20260509052821 | 10 | 150 | 0.0 | 0.0 | 0.00 | 0.00 | 0.00 | 42 | 1004.0 |
| 20260509052318 | 10 | 133 | 0.0 | 0.0 | 0.00 | 0.00 | 0.00 | 42 | 1003.7 |
| 20260509051815 | 10 | 134 | 4.8 | 8.0 | 0.00 | 0.00 | 0.00 | 40 | 1004.2 |
| 20260509051313 | 10 | 144 | 1.6 | 1.6 | 0.00 | 0.00 | 0.00 | 42 | 1003.9 |
| 20260509050809 | 10 | 135 | 0.0 | 0.0 | 0.00 | 0.00 | 0.00 | 41 | 1004.0 |
| 20260509050306 | 10 | 139 | 1.6 | 1.6 | 0.00 | 0.00 | 0.00 | 41 | 1004.2 |
| 20260509045803 | 10 | 135 | 0.0 | 0.0 | 0.00 | 0.00 | 0.00 | 42 | 1004.1 |
| 20260509045300 | 10 | 191 | 1.6 | 3.2 | 0.00 | 0.00 | 0.00 | 41 | 1004.2 |
| 20260509044757 | 9 | 192 | 3.2 | 4.8 | 0.00 | 0.00 | 0.00 | 43 | 1004.5 |
| 20260509044255 | 8 | 128 | 0.0 | 1.6 | 0.00 | 0.00 | 0.00 | 48 | 1004.3 |
| 20260509043751 | 8 | 127 | 0.0 | 0.0 | 0.00 | 0.00 | 0.00 | 51 | 1004.3 |
| 20260509043247 | 8 | 136 | 0.0 | 0.0 | 0.00 | 0.00 | 0.00 | 51 | 1004.4 |
| 20260509042743 | 8 | 134 | 0.0 | 0.0 | 0.00 | 0.00 | 0.00 | 51 | 1004.4 |
| 20260509042240 | 8 | 129 | 0.0 | 0.0 | 0.00 | 0.00 | 0.00 | 52 | 1004.4 |
| 20260509041737 | 8 | 129 | 0.0 | 0.0 | 0.00 | 0.00 | 0.00 | 50 | 1004.3 |
| 20260509041234 | 8 | 135 | 0.0 | 0.0 | 0.00 | 0.00 | 0.00 | 52 | 1004.3 |
| 20260509040732 | 8 | 132 | 0.0 | 0.0 | 0.00 | 0.00 | 0.00 | 53 | 1004.4 |
| 20260509040229 | 8 | 134 | 0.0 | 0.0 | 0.00 | 0.00 | 0.00 | 52 | 1004.6 |
| 20260509035725 | 8 | 131 | 0.0 | 0.0 | 0.00 | 0.00 | 0.00 | 51 | 1004.5 |
| 20260509035222 | 8 | 127 | 0.0 | 0.0 | 0.00 | 0.00 | 0.00 | 52 | 1004.7 |
| 20260509034719 | 8 | 129 | 0.0 | 0.0 | 0.00 | 0.00 | 0.00 | 52 | 1004.9 |
| 20260509034217 | 8 | 121 | 0.0 | 0.0 | 0.00 | 0.00 | 0.00 | 50 | 1004.8 |
| 20260509033714 | 8 | 132 | 0.0 | 0.0 | 0.00 | 0.00 | 0.00 | 52 | 1004.9 |
| 20260509033211 | 8 | 117 | 0.0 | 0.0 | 0.00 | 0.00 | 0.00 | 50 | 1004.8 |
| 20260509032708 | 8 | 125 | 0.0 | 0.0 | 0.00 | 0.00 | 0.00 | 49 | 1004.9 |
| 20260509032205 | 8 | 126 | 0.0 | 0.0 | 0.00 | 0.00 | 0.00 | 48 | 1004.8 |
| 20260509031703 | 9 | 117 | 0.0 | 0.0 | 0.00 | 0.00 | 0.00 | 49 | 1005.1 |
| 20260509031200 | 9 | 126 | 0.0 | 0.0 | 0.00 | 0.00 | 0.00 | 48 | 1004.9 |
| 20260509030658 | 9 | 117 | 0.0 | 0.0 | 0.00 | 0.00 | 0.00 | 47 | 1005.1 |
| 20260509030155 | 9 | 130 | 0.0 | 0.0 | 0.00 | 0.00 | 0.00 | 46 | 1005.2 |
| 20260509025651 | 9 | 125 | 0.0 | 0.0 | 0.00 | 0.00 | 0.00 | 44 | 1005.1 |
| 20260509025147 | 10 | 119 | 0.0 | 0.0 | 0.00 | 0.00 | 0.00 | 46 | 1005.3 |
| 20260509024642 | 10 | 126 | 0.0 | 0.0 | 0.00 | 0.00 | 0.00 | 48 | 1005.4 |
| 20260509024139 | 10 | 127 | 0.0 | 0.0 | 0.00 | 0.00 | 0.00 | 46 | 1005.4 |
| 20260509023637 | 10 | 130 | 0.0 | 0.0 | 0.00 | 0.00 | 0.00 | 46 | 1005.5 |
| 20260509023133 | 10 | 130 | 0.0 | 0.0 | 0.00 | 0.00 | 0.00 | 46 | 1005.4 |
| 20260509022629 | 10 | 127 | 0.0 | 0.0 | 0.00 | 0.00 | 0.00 | 45 | 1005.6 |
| 20260509022128 | 10 | 129 | 0.0 | 0.0 | 0.00 | 0.00 | 0.00 | 45 | 1005.4 |
| 20260509021624 | 10 | 125 | 0.0 | 0.0 | 0.00 | 0.00 | 0.00 | 45 | 1005.4 |
| 20260509021121 | 10 | 130 | 0.0 | 0.0 | 0.00 | 0.00 | 0.00 | 44 | 1005.4 |
| 20260509020620 | 10 | 126 | 0.0 | 0.0 | 0.00 | 0.00 | 0.00 | 46 | 1005.3 |
| 20260509020116 | 10 | 133 | 0.0 | 0.0 | 0.00 | 0.00 | 0.00 | 46 | 1005.4 |
| 20260509015615 | 10 | 133 | 0.0 | 0.0 | 0.00 | 0.00 | 0.00 | 43 | 1005.4 |
| 20260509015112 | 10 | 127 | 0.0 | 0.0 | 0.00 | 0.00 | 0.00 | 43 | 1005.2 |
| 20260509014608 | 11 | 128 | 0.0 | 0.0 | 0.00 | 0.00 | 0.00 | 43 | 1005.1 |
| 20260509014105 | 11 | 132 | 0.0 | 0.0 | 0.00 | 0.00 | 0.00 | 42 | 1005.3 |
| 20260509013602 | 11 | 133 | 0.0 | 0.0 | 0.00 | 0.00 | 0.00 | 41 | 1005.3 |
| 20260509013057 | 11 | 133 | 0.0 | 0.0 | 0.00 | 0.00 | 0.00 | 41 | 1005.3 |
| 20260509012555 | 11 | 129 | 0.0 | 0.0 | 0.00 | 0.00 | 0.00 | 40 | 1005.1 |
| 20260509012051 | 12 | 131 | 0.0 | 0.0 | 0.00 | 0.00 | 0.00 | 39 | 1005.2 |
| 20260509011549 | 12 | 132 | 0.0 | 0.0 | 0.00 | 0.00 | 0.00 | 38 | 1005.3 |
| 20260509011046 | 12 | 133 | 0.0 | 0.0 | 0.00 | 0.00 | 0.00 | 36 | 1005.1 |
| 20260509010544 | 12 | 129 | 0.0 | 0.0 | 0.00 | 0.00 | 0.00 | 37 | 1005.4 |
| 20260509010040 | 12 | 129 | 0.0 | 0.0 | 0.00 | 0.00 | 0.00 | 37 | 1005.2 |
| 20260509005538 | 13 | 129 | 0.0 | 0.0 | 0.00 | 0.00 | 0.00 | 35 | 1005.3 |
| 20260509005038 | 13 | 128 | 0.0 | 0.0 | 0.00 | 0.00 | 0.00 | 35 | 1005.1 |
| 20260509004536 | 14 | 129 | 0.0 | 0.0 | 0.00 | 0.00 | 0.00 | 33 | 1005.3 |
| 20260509004032 | 14 | 134 | 0.0 | 0.0 | 0.00 | 0.00 | 0.00 | 32 | 1005.3 |
| 20260509003531 | 15 | 137 | 0.0 | 0.0 | 0.00 | 0.00 | 0.00 | 31 | 1005.4 |
| 20260509003028 | 15 | 135 | 0.0 | 1.6 | 0.00 | 0.00 | 0.00 | 30 | 1005.2 |
| 20260509002525 | 15 | 188 | 0.0 | 0.0 | 0.00 | 0.00 | 0.00 | 29 | 1005.5 |
| 20260509002022 | 15 | 129 | 0.0 | 0.0 | 0.00 | 0.00 | 0.00 | 29 | 1005.2 |
| 20260509001520 | 15 | 155 | 0.0 | 1.6 | 0.00 | 0.00 | 0.00 | 30 | 1005.6 |
| 20260509001015 | 15 | 121 | 1.6 | 3.2 | 0.00 | 0.00 | 0.00 | 29 | 1005.4 |
| 20260509000514 | 15 | 215 | 1.6 | 3.2 | 0.00 | 0.00 | 0.00 | 28 | 1005.6 |
| 20260509000009 | 16 | 229 | 4.8 | 4.8 | 0.00 | 0.00 | 0.00 | 28 | 1005.5 |
| 20260508235508 | 16 | 187 | 1.6 | 1.6 | 0.00 | 0.00 | 0.00 | 29 | 1005.8 |
| 20260508235003 | 16 | 135 | 0.0 | 0.0 | 0.00 | 0.00 | 0.00 | 29 | 1005.7 |
| 20260508234501 | 16 | 138 | 0.0 | 0.0 | 0.00 | 0.00 | 0.00 | 29 | 1005.8 |
| 20260508233958 | 16 | 172 | 3.2 | 4.8 | 0.00 | 0.00 | 0.00 | 28 | 1005.8 |
| 20260508233458 | 16 | 258 | 6.4 | 8.0 | 0.00 | 0.00 | 0.00 | 27 | 1005.8 |
| 20260508232954 | 16 | 214 | 4.8 | 4.8 | 0.00 | 0.00 | 0.00 | 28 | 1005.8 |
| 20260508232451 | 16 | 234 | 6.4 | 8.0 | 0.00 | 0.00 | 0.00 | 28 | 1005.9 |
| 20260508231948 | 16 | 222 | 4.8 | 4.8 | 0.00 | 0.00 | 0.00 | 28 | 1005.7 |
| 20260508231445 | 16 | 24 | 1.6 | 1.6 | 0.00 | 0.00 | 0.00 | 28 | 1005.9 |
| 20260508230942 | 17 | 184 | 3.2 | 3.2 | 0.00 | 0.00 | 0.00 | 27 | 1005.8 |
| 20260508230439 | 17 | 126 | 0.0 | 1.6 | 0.00 | 0.00 | 0.00 | 28 | 1005.9 |
| 20260508225936 | 17 | 254 | 3.2 | 4.8 | 0.00 | 0.00 | 0.00 | 27 | 1005.9 |
| 20260508225433 | 17 | 163 | 1.6 | 3.2 | 0.00 | 0.00 | 0.00 | 28 | 1006.0 |
| 20260508224930 | 17 | 152 | 0.0 | 1.6 | 0.00 | 0.00 | 0.00 | 29 | 1005.9 |
| 20260508224428 | 17 | 233 | 4.8 | 8.0 | 0.00 | 0.00 | 0.00 | 27 | 1005.8 |
| 20260508223925 | 17 | 194 | 1.6 | 3.2 | 0.00 | 0.00 | 0.00 | 27 | 1005.9 |
| 20260508223423 | 18 | 252 | 4.8 | 8.0 | 0.00 | 0.00 | 0.00 | 26 | 1005.8 |
| 20260508222919 | 18 | 269 | 1.6 | 1.6 | 0.00 | 0.00 | 0.00 | 27 | 1005.8 |
| 20260508222417 | 18 | 166 | 1.6 | 3.2 | 0.00 | 0.00 | 0.00 | 27 | 1005.6 |
| 20260508221913 | 18 | 259 | 3.2 | 4.8 | 0.00 | 0.00 | 0.00 | 26 | 1006.0 |
| 20260508221409 | 18 | 203 | 1.6 | 3.2 | 0.00 | 0.00 | 0.00 | 28 | 1005.9 |
| 20260508220905 | 17 | 216 | 0.0 | 1.6 | 0.00 | 0.00 | 0.00 | 27 | 1005.9 |
| 20260508220402 | 17 | 175 | 0.0 | 1.6 | 0.00 | 0.00 | 0.00 | 28 | 1005.9 |
| 20260508215858 | 17 | 191 | 0.0 | 1.6 | 0.00 | 0.00 | 0.00 | 28 | 1006.0 |
| 20260508215355 | 18 | 182 | 1.6 | 1.6 | 0.00 | 0.00 | 0.00 | 26 | 1005.8 |
| 20260508214852 | 17 | 176 | 1.6 | 3.2 | 0.00 | 0.00 | 0.00 | 30 | 1005.8 |
| 20260508214350 | 18 | 205 | 1.6 | 3.2 | 0.00 | 0.00 | 0.00 | 28 | 1005.9 |
| 20260508213846 | 18 | 62 | 3.2 | 4.8 | 0.00 | 0.00 | 0.00 | 28 | 1006.0 |
| 20260508213343 | 18 | 233 | 0.0 | 1.6 | 0.00 | 0.00 | 0.00 | 27 | 1005.9 |
| 20260508212838 | 18 | 127 | 0.0 | 1.6 | 0.00 | 0.00 | 0.00 | 30 | 1006.2 |
| 20260508212336 | 17 | 297 | 4.8 | 4.8 | 0.00 | 0.00 | 0.00 | 28 | 1006.2 |
| 20260508211831 | 18 | 256 | 3.2 | 3.2 | 0.00 | 0.00 | 0.00 | 28 | 1006.2 |
| 20260508211327 | 18 | 235 | 3.2 | 3.2 | 0.00 | 0.00 | 0.00 | 26 | 1006.0 |
| 20260508210825 | 18 | 140 | 4.8 | 4.8 | 0.00 | 0.00 | 0.00 | 27 | 1006.0 |
| 20260508210321 | 18 | 201 | 1.6 | 1.6 | 0.00 | 0.00 | 0.00 | 28 | 1006.2 |
| 20260508205818 | 18 | 272 | 1.6 | 1.6 | 0.00 | 0.00 | 0.00 | 27 | 1006.3 |
| 20260508205315 | 18 | 353 | 6.4 | 8.0 | 0.00 | 0.00 | 0.00 | 27 | 1006.2 |
| 20260508204811 | 18 | 256 | 6.4 | 9.7 | 0.00 | 0.00 | 0.00 | 26 | 1006.5 |
| 20260508204308 | 18 | 202 | 1.6 | 1.6 | 0.00 | 0.00 | 0.00 | 26 | 1006.4 |
| 20260508203804 | 18 | 252 | 4.8 | 8.0 | 0.00 | 0.00 | 0.00 | 26 | 1006.4 |
| 20260508203300 | 18 | 185 | 3.2 | 3.2 | 0.00 | 0.00 | 0.00 | 29 | 1006.7 |
| 20260508202756 | 19 | 64 | 4.8 | 4.8 | 0.00 | 0.00 | 0.00 | 28 | 1006.7 |
| 20260508202254 | 19 | 251 | 1.6 | 1.6 | 0.00 | 0.00 | 0.00 | 27 | 1006.7 |
| 20260508201751 | 18 | 235 | 4.8 | 8.0 | 0.00 | 0.00 | 0.00 | 27 | 1006.8 |
| 20260508201247 | 18 | 167 | 3.2 | 3.2 | 0.00 | 0.00 | 0.00 | 27 | 1006.7 |
| 20260508200744 | 18 | 169 | 6.4 | 8.0 | 0.00 | 0.00 | 0.00 | 26 | 1006.7 |
| 20260508200240 | 19 | 208 | 1.6 | 3.2 | 0.00 | 0.00 | 0.00 | 27 | 1006.9 |
| 20260508195736 | 20 | 88 | 1.6 | 1.6 | 0.00 | 0.00 | 0.00 | 26 | 1006.8 |
| 20260508195233 | 19 | 179 | 4.8 | 8.0 | 0.00 | 0.00 | 0.00 | 25 | 1007.2 |
| 20260508194730 | 18 | 235 | 4.8 | 4.8 | 0.00 | 0.00 | 0.00 | 26 | 1007.2 |
| 20260508194226 | 19 | 203 | 4.8 | 8.0 | 0.00 | 0.00 | 0.00 | 25 | 1006.9 |
| 20260508193724 | 18 | 190 | 0.0 | 1.6 | 0.00 | 0.00 | 0.00 | 27 | 1007.0 |
| 20260508193220 | 18 | 130 | 1.6 | 3.2 | 0.00 | 0.00 | 0.00 | 27 | 1007.2 |
| 20260508192717 | 18 | 173 | 3.2 | 3.2 | 0.00 | 0.00 | 0.00 | 27 | 1007.3 |
| 20260508192214 | 18 | 142 | 0.0 | 0.0 | 0.00 | 0.00 | 0.00 | 25 | 1007.0 |
| 20260508191711 | 18 | 214 | 1.6 | 3.2 | 0.00 | 0.00 | 0.00 | 26 | 1007.3 |
| 20260508191208 | 18 | 170 | 6.4 | 9.7 | 0.00 | 0.00 | 0.00 | 25 | 1007.5 |
| 20260508190705 | 19 | 201 | 1.6 | 1.6 | 0.00 | 0.00 | 0.00 | 25 | 1007.3 |
| 20260508190201 | 18 | 182 | 1.6 | 3.2 | 0.00 | 0.00 | 0.00 | 28 | 1007.3 |
| 20260508185658 | 19 | 276 | 4.8 | 4.8 | 0.00 | 0.00 | 0.00 | 25 | 1007.3 |
| 20260508185155 | 19 | 157 | 4.8 | 11.3 | 0.00 | 0.00 | 0.00 | 26 | 1007.5 |
| 20260508184653 | 19 | 150 | 1.6 | 1.6 | 0.00 | 0.00 | 0.00 | 28 | 1007.4 |
| 20260508184150 | 19 | 180 | 1.6 | 1.6 | 0.00 | 0.00 | 0.00 | 27 | 1007.6 |
| 20260508183647 | 18 | 130 | 0.0 | 1.6 | 0.00 | 0.00 | 0.00 | 27 | 1007.5 |
| 20260508183142 | 18 | 171 | 8.0 | 12.9 | 0.00 | 0.00 | 0.00 | 27 | 1007.7 |
| 20260508182639 | 18 | 327 | 3.2 | 3.2 | 0.00 | 0.00 | 0.00 | 26 | 1007.7 |
| 20260508182135 | 19 | 286 | 1.6 | 1.6 | 0.00 | 0.00 | 0.00 | 25 | 1007.5 |
| 20260508181631 | 18 | 264 | 4.8 | 4.8 | 0.00 | 0.00 | 0.00 | 27 | 1007.9 |
| 20260508181129 | 18 | 134 | 3.2 | 3.2 | 0.00 | 0.00 | 0.00 | 28 | 1007.7 |
| 20260508180625 | 19 | 125 | 0.0 | 1.6 | 0.00 | 0.00 | 0.00 | 29 | 1007.8 |
| 20260508180122 | 18 | 235 | 3.2 | 3.2 | 0.00 | 0.00 | 0.00 | 29 | 1007.9 |
| 20260508175618 | 18 | 109 | 0.0 | 1.6 | 0.00 | 0.00 | 0.00 | 32 | 1007.9 |
| 20260508175115 | 18 | 160 | 3.2 | 3.2 | 0.00 | 0.00 | 0.00 | 29 | 1008.1 |
| 20260508174613 | 18 | 270 | 3.2 | 3.2 | 0.00 | 0.00 | 0.00 | 29 | 1008.2 |
| 20260508174110 | 18 | 158 | 1.6 | 3.2 | 0.00 | 0.00 | 0.00 | 30 | 1008.2 |
| 20260508173607 | 18 | 286 | 1.6 | 3.2 | 0.00 | 0.00 | 0.00 | 30 | 1008.3 |
| 20260508173102 | 18 | 246 | 4.8 | 8.0 | 0.00 | 0.00 | 0.00 | 29 | 1008.4 |
| 20260508172600 | 18 | 110 | 4.8 | 4.8 | 0.00 | 0.00 | 0.00 | 30 | 1008.4 |
| 20260508172056 | 17 | 141 | 0.0 | 1.6 | 0.00 | 0.00 | 0.00 | 30 | 1008.6 |
| 20260508171553 | 18 | 117 | 4.8 | 4.8 | 0.00 | 0.00 | 0.00 | 30 | 1008.8 |
| 20260508171049 | 17 | 232 | 3.2 | 3.2 | 0.00 | 0.00 | 0.00 | 31 | 1008.7 |
| 20260508170547 | 18 | 130 | 1.6 | 4.8 | 0.00 | 0.00 | 0.00 | 31 | 1008.7 |
| 20260508170044 | 17 | 180 | 3.2 | 3.2 | 0.00 | 0.00 | 0.00 | 30 | 1008.8 |
| 20260508165541 | 17 | 155 | 0.0 | 1.6 | 0.00 | 0.00 | 0.00 | 31 | 1009.1 |
| 20260508165038 | 17 | 167 | 1.6 | 3.2 | 0.00 | 0.00 | 0.00 | 29 | 1009.0 |
| 20260508164534 | 16 | 223 | 3.2 | 8.0 | 0.00 | 0.00 | 0.00 | 29 | 1009.2 |
| 20260508164031 | 17 | 93 | 1.6 | 3.2 | 0.00 | 0.00 | 0.00 | 30 | 1009.1 |
| 20260508163529 | 17 | 151 | 3.2 | 4.8 | 0.00 | 0.00 | 0.00 | 32 | 1009.3 |
| 20260508163025 | 17 | 224 | 3.2 | 3.2 | 0.00 | 0.00 | 0.00 | 32 | 1009.4 |
| 20260508162522 | 17 | 124 | 0.0 | 1.6 | 0.00 | 0.00 | 0.00 | 36 | 1009.5 |
| 20260508162020 | 16 | 146 | 1.6 | 1.6 | 0.00 | 0.00 | 0.00 | 34 | 1009.5 |
| 20260508161516 | 16 | 179 | 4.8 | 4.8 | 0.00 | 0.00 | 0.00 | 32 | 1009.4 |
| 20260508161013 | 17 | 124 | 3.2 | 3.2 | 0.00 | 0.00 | 0.00 | 33 | 1009.4 |
| 20260508160512 | 18 | 165 | 1.6 | 3.2 | 0.00 | 0.00 | 0.00 | 32 | 1009.5 |
| 20260508160008 | 17 | 134 | 1.6 | 3.2 | 0.00 | 0.00 | 0.00 | 32 | 1009.4 |
| 20260508155505 | 17 | 151 | 0.0 | 1.6 | 0.00 | 0.00 | 0.00 | 34 | 1009.4 |
| 20260508155002 | 16 | 198 | 1.6 | 3.2 | 0.00 | 0.00 | 0.00 | 35 | 1009.5 |
| 20260508154500 | 15 | 140 | 0.0 | 1.6 | 0.00 | 0.00 | 0.00 | 38 | 1009.4 |
| 20260508153956 | 16 | 202 | 3.2 | 4.8 | 0.00 | 0.00 | 0.00 | 36 | 1009.6 |
| 20260508153453 | 16 | 142 | 3.2 | 4.8 | 0.00 | 0.00 | 0.00 | 34 | 1009.6 |
| 20260508152949 | 16 | 178 | 3.2 | 3.2 | 0.00 | 0.00 | 0.00 | 36 | 1009.6 |
| 20260508152446 | 16 | 185 | 3.2 | 4.8 | 0.00 | 0.00 | 0.00 | 39 | 1009.5 |
| 20260508151942 | 15 | 147 | 3.2 | 3.2 | 0.00 | 0.00 | 0.00 | 41 | 1009.6 |
| 20260508151439 | 15 | 117 | 1.6 | 1.6 | 0.00 | 0.00 | 0.00 | 41 | 1009.5 |
| 20260508150935 | 15 | 211 | 4.8 | 4.8 | 0.00 | 0.00 | 0.00 | 39 | 1009.7 |
| 20260508150432 | 15 | 127 | 0.0 | 1.6 | 0.00 | 0.00 | 0.00 | 43 | 1009.9 |
| 20260508145928 | 15 | 288 | 6.4 | 11.3 | 0.00 | 0.00 | 0.00 | 41 | 1009.9 |
| 20260508145425 | 15 | 119 | 4.8 | 4.8 | 0.00 | 0.00 | 0.00 | 42 | 1009.9 |
| 20260508144921 | 15 | 139 | 3.2 | 3.2 | 0.00 | 0.00 | 0.00 | 41 | 1009.9 |
| 20260508144419 | 15 | 235 | 4.8 | 4.8 | 0.00 | 0.00 | 0.00 | 41 | 1009.8 |
| 20260508143917 | 15 | 148 | 0.0 | 1.6 | 0.00 | 0.00 | 0.00 | 44 | 1010.0 |
| 20260508143414 | 15 | 123 | 0.0 | 0.0 | 0.00 | 0.00 | 0.00 | 45 | 1009.8 |
| 20260508142910 | 15 | 169 | 1.6 | 3.2 | 0.00 | 0.00 | 0.00 | 45 | 1009.9 |
| 20260508142408 | 15 | 152 | 0.0 | 1.6 | 0.00 | 0.00 | 0.00 | 47 | 1010.0 |
| 20260508141904 | 15 | 128 | 0.0 | 1.6 | 0.00 | 0.00 | 0.00 | 46 | 1009.9 |
| 20260508141400 | 15 | 119 | 0.0 | 0.0 | 0.00 | 0.00 | 0.00 | 44 | 1010.3 |
| 20260508140858 | 14 | 258 | 1.6 | 3.2 | 0.00 | 0.00 | 0.00 | 48 | 1010.1 |
| 20260508140355 | 13 | 195 | 1.6 | 1.6 | 0.00 | 0.00 | 0.00 | 54 | 1010.1 |
| 20260508135851 | 12 | 131 | 0.0 | 0.0 | 0.00 | 0.00 | 0.00 | 55 | 1010.1 |
| 20260508135347 | 13 | 118 | 1.6 | 1.6 | 0.00 | 0.00 | 0.00 | 58 | 1010.1 |
| 20260508134844 | 12 | 148 | 0.0 | 0.0 | 0.00 | 0.00 | 0.00 | 59 | 1010.1 |
| 20260508134340 | 12 | 129 | 0.0 | 1.6 | 0.00 | 0.00 | 0.00 | 61 | 1010.1 |
| 20260508133837 | 12 | 181 | 0.0 | 1.6 | 0.00 | 0.00 | 0.00 | 61 | 1010.0 |
| 20260508133335 | 12 | 124 | 1.6 | 1.6 | 0.00 | 0.00 | 0.00 | 61 | 1010.2 |
| 20260508132832 | 11 | 122 | 1.6 | 3.2 | 0.00 | 0.00 | 0.00 | 64 | 1010.3 |
| 20260508132329 | 11 | 125 | 0.0 | 0.0 | 0.00 | 0.00 | 0.00 | 65 | 1010.4 |
| 20260508131826 | 11 | 149 | 0.0 | 0.0 | 0.00 | 0.00 | 0.00 | 67 | 1010.3 |
| 20260508131321 | 10 | 203 | 1.6 | 1.6 | 0.00 | 0.00 | 0.00 | 68 | 1010.1 |
| 20260508130819 | 10 | 139 | 1.6 | 1.6 | 0.00 | 0.00 | 0.00 | 69 | 1010.1 |
| 20260508130315 | 10 | 129 | 0.0 | 0.0 | 0.00 | 0.00 | 0.00 | 73 | 1010.4 |
| 20260508125811 | 9 | 111 | 1.6 | 1.6 | 0.00 | 0.00 | 0.00 | 73 | 1010.4 |
| 20260508125308 | 8 | 145 | 0.0 | 0.0 | 0.00 | 0.00 | 0.00 | 74 | 1010.4 |
| 20260508124806 | 8 | 132 | 0.0 | 0.0 | 0.00 | 0.00 | 0.00 | 76 | 1010.6 |
| 20260508124303 | 7 | 224 | 3.2 | 3.2 | 0.00 | 0.00 | 0.00 | 78 | 1010.6 |
| 20260508123801 | 7 | 128 | 0.0 | 0.0 | 0.00 | 0.00 | 0.00 | 80 | 1010.4 |
| 20260508123259 | 6 | 132 | 1.6 | 1.6 | 0.00 | 0.00 | 0.00 | 81 | 1010.6 |
| 20260508122755 | 6 | 131 | 0.0 | 0.0 | 0.00 | 0.00 | 0.00 | 84 | 1010.3 |
| 20260508122252 | 5 | 125 | 0.0 | 0.0 | 0.00 | 0.00 | 0.00 | 87 | 1010.3 |
| 20260508121749 | 5 | 130 | 0.0 | 0.0 | 0.00 | 0.00 | 0.00 | 89 | 1010.3 |
| 20260508121248 | 4 | 127 | 0.0 | 0.0 | 0.00 | 0.00 | 0.00 | 90 | 1010.1 |
| 20260508120744 | 3 | 131 | 0.0 | 0.0 | 0.00 | 0.00 | 0.00 | 91 | 1010.2 |
| 20260508120243 | 3 | 135 | 0.0 | 0.0 | 0.00 | 0.00 | 0.00 | 94 | 1010.1 |
| 20260508115740 | 2 | 131 | 0.0 | 0.0 | 0.00 | 0.00 | 0.00 | 95 | 1010.2 |
| 20260508115237 | 2 | 124 | 0.0 | 0.0 | 0.00 | 0.00 | 0.00 | 95 | 1010.2 |
| 20260508114733 | 2 | 124 | 0.0 | 0.0 | 0.00 | 0.00 | 0.00 | 96 | 1009.9 |
| 20260508114230 | 1 | 125 | 0.0 | 0.0 | 0.00 | 0.00 | 0.00 | 95 | 1010.0 |
| 20260508113727 | 1 | 127 | 0.0 | 0.0 | 0.00 | 0.00 | 0.00 | 95 | 1009.9 |
| 20260508113226 | 1 | 132 | 0.0 | 0.0 | 0.00 | 0.00 | 0.00 | 96 | 1009.9 |
| 20260508112721 | 1 | 132 | 0.0 | 0.0 | 0.00 | 0.00 | 0.00 | 96 | 1010.0 |
| 20260508112218 | 1 | 127 | 0.0 | 0.0 | 0.00 | 0.00 | 0.00 | 96 | 1010.0 |
| 20260508111715 | 0 | 126 | 0.0 | 0.0 | 0.00 | 0.00 | 0.00 | 95 | 1009.9 |
| 20260508111213 | 0 | 130 | 0.0 | 0.0 | 0.00 | 0.00 | 0.00 | 95 | 1009.9 |
| 20260508110710 | 0 | 131 | 0.0 | 0.0 | 0.00 | 0.00 | 0.00 | 95 | 1009.9 |
| 20260508110207 | 0 | 129 | 0.0 | 0.0 | 0.00 | 0.00 | 0.00 | 95 | 1010.0 |
| 20260508105706 | 0 | 132 | 0.0 | 0.0 | 0.00 | 0.00 | 0.00 | 95 | 1010.0 |
| 20260508105204 | 0 | 127 | 0.0 | 0.0 | 0.00 | 0.00 | 0.00 | 95 | 1009.7 |
| 20260508104701 | 0 | 127 | 0.0 | 0.0 | 0.00 | 0.00 | 0.00 | 95 | 1009.7 |
| 20260508104158 | 0 | 128 | 0.0 | 0.0 | 0.00 | 0.00 | 0.00 | 95 | 1009.5 |
| 20260508103655 | 1 | 128 | 0.0 | 0.0 | 0.00 | 0.00 | 0.00 | 95 | 1009.8 |
| 20260508103152 | 0 | 133 | 0.0 | 0.0 | 0.00 | 0.00 | 0.00 | 95 | 1009.6 |
| 20260508102649 | 1 | 126 | 0.0 | 0.0 | 0.00 | 0.00 | 0.00 | 94 | 1009.6 |
| 20260508102147 | 1 | 122 | 0.0 | 0.0 | 0.00 | 0.00 | 0.00 | 94 | 1009.7 |
| 20260508101644 | 1 | 97 | 0.0 | 0.0 | 0.00 | 0.00 | 0.00 | 94 | 1009.5 |
| 20260508101142 | 1 | 119 | 0.0 | 0.0 | 0.00 | 0.00 | 0.00 | 94 | 1009.8 |
| 20260508100639 | 1 | 124 | 0.0 | 0.0 | 0.00 | 0.00 | 0.00 | 93 | 1009.8 |
| 20260508100137 | 1 | 124 | 0.0 | 0.0 | 0.00 | 0.00 | 0.00 | 93 | 1009.6 |
| 20260508095633 | 1 | 125 | 0.0 | 0.0 | 0.00 | 0.00 | 0.00 | 93 | 1009.8 |
| 20260508095130 | 1 | 125 | 0.0 | 0.0 | 0.00 | 0.00 | 0.00 | 93 | 1009.7 |
| 20260508094627 | 1 | 117 | 0.0 | 0.0 | 0.00 | 0.00 | 0.00 | 93 | 1009.7 |
| 20260508094124 | 1 | 125 | 0.0 | 0.0 | 0.00 | 0.00 | 0.00 | 93 | 1009.7 |
| 20260508093621 | 1 | 126 | 0.0 | 0.0 | 0.00 | 0.00 | 0.00 | 92 | 1009.8 |
| 20260508093119 | 1 | 127 | 0.0 | 0.0 | 0.00 | 0.00 | 0.00 | 92 | 1009.9 |
| 20260508092616 | 1 | 130 | 0.0 | 0.0 | 0.00 | 0.00 | 0.00 | 93 | 1009.8 |
| 20260508092114 | 1 | 129 | 0.0 | 0.0 | 0.00 | 0.00 | 0.00 | 92 | 1010.2 |
| 20260508091611 | 1 | 127 | 0.0 | 0.0 | 0.00 | 0.00 | 0.00 | 92 | 1009.8 |
| 20260508091108 | 1 | 130 | 0.0 | 0.0 | 0.00 | 0.00 | 0.00 | 92 | 1009.9 |
| 20260508090606 | 1 | 131 | 0.0 | 0.0 | 0.00 | 0.00 | 0.00 | 92 | 1010.0 |
| 20260508090103 | 1 | 129 | 0.0 | 0.0 | 0.00 | 0.00 | 0.00 | 91 | 1010.0 |
| 20260508085559 | 1 | 129 | 0.0 | 0.0 | 0.00 | 0.00 | 0.00 | 91 | 1010.0 |
| 20260508085057 | 1 | 127 | 0.0 | 0.0 | 0.00 | 0.00 | 0.00 | 90 | 1009.9 |
| 20260508084553 | 2 | 126 | 0.0 | 0.0 | 0.00 | 0.00 | 0.00 | 90 | 1009.9 |
| 20260508084050 | 2 | 126 | 0.0 | 0.0 | 0.00 | 0.00 | 0.00 | 90 | 1009.9 |
| 20260508083547 | 2 | 126 | 0.0 | 0.0 | 0.00 | 0.00 | 0.00 | 90 | 1010.0 |
| 20260508083044 | 2 | 120 | 0.0 | 0.0 | 0.00 | 0.00 | 0.00 | 90 | 1009.8 |
| 20260508082540 | 2 | 125 | 0.0 | 0.0 | 0.00 | 0.00 | 0.00 | 90 | 1009.9 |
| 20260508082037 | 2 | 125 | 0.0 | 0.0 | 0.00 | 0.00 | 0.00 | 90 | 1010.1 |
| 20260508081535 | 2 | 125 | 0.0 | 0.0 | 0.00 | 0.00 | 0.00 | 90 | 1010.2 |
| 20260508081031 | 2 | 121 | 0.0 | 0.0 | 0.00 | 0.00 | 0.00 | 89 | 1010.2 |
| 20260508080529 | 2 | 112 | 0.0 | 0.0 | 0.00 | 0.00 | 0.00 | 89 | 1010.3 |
| 20260508080026 | 2 | 117 | 0.0 | 0.0 | 0.00 | 0.00 | 0.00 | 89 | 1010.1 |
| 20260508075522 | 2 | 123 | 0.0 | 0.0 | 0.00 | 0.00 | 0.00 | 88 | 1010.0 |
| 20260508075020 | 2 | 122 | 0.0 | 0.0 | 0.00 | 0.00 | 0.00 | 87 | 1010.0 |
| 20260508074518 | 2 | 112 | 0.0 | 0.0 | 0.00 | 0.00 | 0.00 | 87 | 1010.0 |
| 20260508074014 | 2 | 133 | 0.0 | 0.0 | 0.00 | 0.00 | 0.00 | 87 | 1010.0 |
| 20260508073511 | 2 | 133 | 0.0 | 0.0 | 0.00 | 0.00 | 0.00 | 87 | 1010.0 |
| 20260508073009 | 3 | 133 | 0.0 | 0.0 | 0.00 | 0.00 | 0.00 | 86 | 1010.1 |
| 20260508072504 | 3 | 129 | 0.0 | 0.0 | 0.00 | 0.00 | 0.00 | 87 | 1010.2 |
| 20260508072002 | 3 | 130 | 0.0 | 0.0 | 0.00 | 0.00 | 0.00 | 87 | 1010.3 |
| 20260508071500 | 2 | 125 | 0.0 | 0.0 | 0.00 | 0.00 | 0.00 | 87 | 1010.3 |
| 20260508070957 | 3 | 125 | 0.0 | 0.0 | 0.00 | 0.00 | 0.00 | 87 | 1010.3 |
| 20260508070455 | 3 | 125 | 0.0 | 0.0 | 0.00 | 0.00 | 0.00 | 86 | 1010.6 |
| 20260508065953 | 3 | 124 | 0.0 | 0.0 | 0.00 | 0.00 | 0.00 | 86 | 1010.3 |
| 20260508065450 | 3 | 135 | 0.0 | 0.0 | 0.00 | 0.00 | 0.00 | 86 | 1010.5 |
| 20260508064948 | 3 | 139 | 0.0 | 0.0 | 0.00 | 0.00 | 0.00 | 86 | 1010.5 |